Location: Moonridge Observatory
(39.2268°N, 77.7914°W)
Time: 15:50:52
(UTC-05:00)

Amateur Radio Satellites - All Passes

Search period start: 20 December 2014 15:20
Search period end: 21 December 2014 15:20
Location: Moonridge Observatory, 39.2268°N, 77.7914°W

Satellite Date Start Highest point End Downlink Frequencies (MHz)
Time Altitude Azimuth
HORYU 2 20 Dec 15:20:54 15:24:59 35° 262° (W) 15:29:07 437.375
BEESAT 20 Dec 15:25:14 15:26:41 11° 299° (WNW) 15:28:08 436.000
ISS 20 Dec 15:31:05 15:33:14 16° 340° (NNW) 15:35:22 145.825
JAS-2 20 Dec 15:35:49 15:42:44 39° 68° (ENE) 15:49:08 435.910
AO-7 20 Dec 15:48:08 15:56:25 72° 255° (WSW) 16:04:48 29.400- 29.500
AIST 2 20 Dec 15:53:57 15:54:44 10° 321° (NW) 15:55:31 435.215
MOZHAYETS 4 20 Dec 16:01:55 16:04:28 15° 91° (E) 16:06:59
SRMSAT 20 Dec 16:14:49 16:15:20 10° 185° (S) 16:15:52 437.500
STARS 20 Dec 16:27:21 16:29:48 15° 296° (WNW) 16:32:15 437.465
AIST 1 20 Dec 16:28:04 16:32:26 71° 95° (E) 16:36:48
Cubesat XI-IV 20 Dec 16:39:45 16:43:56 24° 65° (ENE) 16:48:07 437.490
GONETS M04 20 Dec 16:48:52 16:57:40 75° 81° (E) 17:06:20
CUTE-I 20 Dec 17:11:59 17:17:02 46° 71° (ENE) 17:22:06 437.470
JAS-2 20 Dec 17:20:27 17:27:38 42° 262° (W) 17:34:19 435.910
RS-15 20 Dec 17:27:53 17:35:04 19° 12° (NNE) 17:42:22 29.354- 29.394
MOZHAYETS 4 20 Dec 17:37:29 17:41:58 51° 287° (WNW) 17:46:25
AO-7 20 Dec 17:47:50 17:50:30 12° 272° (W) 17:53:12 29.400- 29.500
MaSat-1 20 Dec 18:01:55 18:04:07 30° 63° (ENE) 18:06:26 437.345
Cubesat XI-IV 20 Dec 18:18:43 18:23:44 42° 261° (W) 18:28:47 437.490
PRISM 20 Dec 18:23:34 18:27:43 72° 102° (ESE) 18:31:50 437.425
CUSAT 1 20 Dec 18:40:25 18:44:18 14° 63° (ENE) 18:48:21 437.405
ISS 20 Dec 18:46:21 18:48:36 17° 21° (NNE) 18:50:51 145.825
GONETS M04 20 Dec 18:47:23 18:53:28 22° 280° (W) 18:59:33
CUTE-I 20 Dec 18:53:21 18:57:18 21° 266° (W) 19:01:16 437.470
CUBESAT XI-V 20 Dec 19:00:09 19:04:47 85° 103° (ESE) 19:09:23 437.345
CUTE 1.7 + AOD 2 20 Dec 19:00:54 19:01:20 10° 63° (ENE) 19:01:46 437.475
STRAND 1 20 Dec 19:09:10 19:14:17 82° 103° (ESE) 19:19:22 437.568
HO-68 20 Dec 19:20:29 19:26:58 38° 64° (ENE) 19:33:27 435.675
GOMX 1 20 Dec 19:21:54 19:23:51 13° 65° (ENE) 19:25:49 467.674
DANDE 20 Dec 19:30:03 19:36:34 29° 71° (ENE) 19:43:43 436.750
RS-15 20 Dec 19:41:05 19:51:38 43° 44° (NE) 20:02:32 29.354- 29.394
DOVE 4 20 Dec 19:46:16 19:49:05 18° 67° (ENE) 19:51:55 437.250
AAUSAT CUBESAT 2 20 Dec 19:49:00 19:52:17 23° 68° (ENE) 19:55:36 437.432
CANX-2 20 Dec 20:01:39 20:05:48 54° 74° (ENE) 20:10:00 2200.000
CINEMA 3 20 Dec 20:11:10 20:14:12 20° 67° (ENE) 20:17:19 145.822/145.860
CUSAT 1 20 Dec 20:20:41 20:28:28 69° 79° (E) 20:36:58 437.405
ISS 20 Dec 20:22:17 20:25:34 88° 219° (SW) 20:28:49 145.825
COMPASS 1 20 Dec 20:23:19 20:27:29 64° 75° (ENE) 20:31:42 437.405
SEEDS 20 Dec 20:28:52 20:33:06 89° 75° (ENE) 20:37:24 437.485
BRITE-PL 20 Dec 20:31:06 20:35:16 68° 259° (WSW) 20:39:24 437.365/2234.400
FUNcube-1 20 Dec 20:32:11 20:34:36 15° 65° (ENE) 20:37:02 145.935
CUTE 1.7 + AOD 2 20 Dec 20:32:23 20:36:37 72° 258° (WSW) 20:40:55 437.475
UWE-3 20 Dec 20:32:31 20:35:24 18° 66° (ENE) 20:38:19 435.000/436.395/437.385
DELFI C3 20 Dec 20:40:01 20:43:44 34° 71° (ENE) 20:47:28 145.870
DX 1 20 Dec 20:46:44 20:50:47 40° 71° (ENE) 20:54:51 434.975-435.025
BEESAT 3 20 Dec 20:50:19 20:52:09 13° 42° (NE) 20:53:58 437.485
AISAT 20 Dec 20:50:30 20:53:03 15° 64° (ENE) 20:55:35 437.250
STRAND 1 20 Dec 20:50:47 20:52:45 12° 300° (WNW) 20:54:42 437.568
SO-50 20 Dec 20:53:09 20:57:35 63° 118° (ESE) 21:02:12 436.795
GOMX 1 20 Dec 20:57:34 21:01:34 47° 261° (W) 21:05:36 467.674
HUMSAT D 20 Dec 21:04:56 21:07:58 20° 68° (ENE) 21:11:03 437.325/437.525
HO-68 20 Dec 21:07:55 21:14:34 40° 261° (W) 21:21:15 435.675
Oscar 11 20 Dec 21:08:49 21:13:09 89° 255° (WSW) 21:17:31 145.826/435.025
DANDE 20 Dec 21:12:40 21:20:22 66° 265° (W) 21:28:57 436.750
UKube-1 20 Dec 21:17:24 21:21:44 88° 76° (ENE) 21:26:05 .
DOVE 4 20 Dec 21:22:52 21:26:37 33° 263° (W) 21:30:25 437.250
AAUSAT CUBESAT 2 20 Dec 21:24:10 21:27:48 28° 264° (W) 21:31:28 437.432
BEESAT 2 20 Dec 21:29:05 21:32:32 24° 49° (NE) 21:35:57 435.950
CUBEBUG 2 20 Dec 21:29:27 21:33:36 85° 258° (WSW) 21:37:54 437.445
TIGRISAT 20 Dec 21:38:22 21:40:14 12° 90° (E) 21:42:05 435.000
ZACube-1 20 Dec 21:39:36 21:43:46 89° 77° (ENE) 21:48:03 437.345
CANX-2 20 Dec 21:40:29 21:42:04 12° 270° (W) 21:43:39 2200.000
VELOX 1 20 Dec 21:41:39 21:45:57 52° 73° (ENE) 21:50:15 145.980
ESTCUBE 1 20 Dec 21:45:22 21:48:56 23° 68° (ENE) 21:52:31 437.505/2401.250
CINEMA 3 20 Dec 21:47:32 21:51:13 31° 264° (W) 21:54:59 145.822/145.860
RS-15 20 Dec 21:53:27 22:04:29 61° 247° (WSW) 22:16:01 29.354- 29.394
YUBILEINY 20 Dec 22:03:20 22:06:31 12° 75° (ENE) 22:09:42 435.215
CUSAT 1 20 Dec 22:04:49 22:11:04 27° 274° (W) 22:17:43 437.405
DUCHIFAT 1 20 Dec 22:05:45 22:07:57 14° 92° (E) 22:10:09 145.980
UNISAT 6 20 Dec 22:05:52 22:09:46 25° 95° (E) 22:13:39 437.425
FUNcube-1 20 Dec 22:06:35 22:10:33 44° 261° (W) 22:14:37 145.935
UWE-3 20 Dec 22:07:51 22:11:40 35° 263° (W) 22:15:35 435.000/436.395/437.385
50 SAT 20 Dec 22:16:12 22:20:12 73° 258° (WSW) 22:24:15 437.505
DELFI C3 20 Dec 22:16:17 22:19:05 18° 267° (W) 22:21:54 145.870
QB50P2 20 Dec 22:18:34 22:21:45 20° 94° (E) 22:24:56 145.880/145.840
PCSat 20 Dec 22:19:05 22:24:00 34° 53° (NE) 22:28:54 145.827
DX 1 20 Dec 22:24:24 22:27:11 17° 266° (W) 22:29:59 434.975-435.025
AISAT 20 Dec 22:24:59 22:29:15 49° 260° (W) 22:33:33 437.250
BEESAT 3 20 Dec 22:26:42 22:30:53 80° 241° (WSW) 22:34:59 437.485
POLYITAN 1 20 Dec 22:27:08 22:30:43 25° 96° (E) 22:34:17 437.675
NANOSAT C BR1 20 Dec 22:29:14 22:32:49 26° 96° (E) 22:36:24 145.865
CUBEBUG 1 20 Dec 22:30:19 22:34:39 67° 75° (ENE) 22:38:59 437.445
AIST 2 20 Dec 22:34:14 22:38:26 50° 55° (NE) 22:42:33 435.215
SO-50 20 Dec 22:35:30 22:38:35 18° 317° (NW) 22:41:44 436.795
ANTELSAT 20 Dec 22:37:15 22:41:54 54° 100° (E) 22:46:31 437.575/2403.000
HUMSAT D 20 Dec 22:39:55 22:43:34 31° 263° (W) 22:47:17 437.325/437.525
QB50P1 20 Dec 22:43:22 22:47:21 38° 98° (E) 22:51:19 145.935-145.965
DANDE 20 Dec 23:00:01 23:02:46 12° 280° (W) 23:05:36 436.750
BEESAT 2 20 Dec 23:07:04 23:10:49 32° 246° (WSW) 23:14:30 435.950
POPSAT HIP 1 20 Dec 23:11:52 23:16:09 83° 103° (ESE) 23:20:26 437.405
TIGRISAT 20 Dec 23:12:41 23:17:21 65° 285° (WNW) 23:22:01 435.000
VELOX 1 20 Dec 23:20:43 23:22:49 13° 268° (W) 23:24:55 145.980
ESTCUBE 1 20 Dec 23:21:35 23:25:38 32° 263° (W) 23:29:42 437.505/2401.250
TISAT 1 20 Dec 23:33:49 23:38:01 83° 76° (ENE) 23:42:14 437.305
SPROUT 20 Dec 23:37:40 23:41:56 84° 76° (ENE) 23:46:14 437.525
BUGSAT 1 20 Dec 23:38:05 23:42:04 59° 285° (WNW) 23:46:05 437.445
DUCHIFAT 1 20 Dec 23:39:58 23:44:02 46° 287° (WNW) 23:48:07 145.980
UNISAT 6 20 Dec 23:42:22 23:46:31 32° 290° (WNW) 23:50:41 437.425
O/OREOS (USA 219) 20 Dec 23:48:04 23:51:27 22° 102° (ESE) 23:54:51 437.305
YUBILEINY 20 Dec 23:53:00 00:01:42 75° 94° (E) 00:10:23 435.215
QB50P2 20 Dec 23:53:54 23:57:42 32° 289° (WNW) 00:01:30 145.880/145.840
AUBIESAT-1 21 Dec 00:01:12 00:04:16 17° 59° (ENE) 00:07:21 437.475
PCSat 21 Dec 00:02:33 00:07:21 33° 251° (WSW) 00:12:07 145.827
POLYITAN 1 21 Dec 00:03:00 00:06:34 26° 291° (WNW) 00:10:09 437.675
NANOSAT C BR1 21 Dec 00:05:07 00:08:35 25° 291° (WNW) 00:12:04 145.865
RS-15 21 Dec 00:13:13 00:14:30 10° 265° (W) 00:15:46 29.354- 29.394
AIST 2 21 Dec 00:14:13 00:16:36 15° 251° (WSW) 00:18:58 435.215
ANTELSAT 21 Dec 00:15:25 00:18:13 16° 296° (WNW) 00:21:02 437.575/2403.000
QB50P1 21 Dec 00:20:05 00:22:56 18° 294° (WNW) 00:25:48 145.935-145.965
SWISSCUBE 21 Dec 00:25:26 00:30:01 48° 72° (ENE) 00:34:38 437.505
M-CUBED/EXP-1 PRIME 21 Dec 00:25:35 00:29:49 31° 64° (ENE) 00:34:07 437.505
ITUPSAT 1 21 Dec 00:26:03 00:30:36 44° 71° (ENE) 00:35:09 437.325
BEESAT 21 Dec 00:50:09 00:54:57 80° 75° (ENE) 00:59:45 436.000
O/OREOS (USA 219) 21 Dec 01:26:37 01:30:38 32° 298° (WNW) 01:34:40 437.305
AUBIESAT-1 21 Dec 01:33:56 01:38:41 61° 255° (WSW) 01:43:33 437.475
VERMONT LUNAR 21 Dec 01:34:04 01:35:16 11° 144° (SE) 01:36:27 437.305
Oscar 19 21 Dec 01:42:14 01:47:27 73° 102° (ESE) 01:52:38 437.125/150
STARS 21 Dec 01:45:45 01:49:49 40° 71° (ENE) 01:53:55 437.465
KKS-1 21 Dec 01:49:43 01:54:06 68° 75° (ENE) 01:58:31 437.445
YUBILEINY 21 Dec 01:52:53 01:59:22 23° 294° (WNW) 02:05:52 435.215
Gurwin Techsat 1B 21 Dec 01:56:10 02:00:14 22° 94° (E) 02:04:17 435.225
ITAMSAT 1 21 Dec 01:58:52 02:03:39 37° 98° (E) 02:08:24 435.822/435.867
M-CUBED/EXP-1 PRIME 21 Dec 02:00:28 02:04:42 30° 260° (W) 02:09:02 437.505
SWISSCUBE 21 Dec 02:05:01 02:08:06 17° 267° (W) 02:11:13 437.505
ITUPSAT 1 21 Dec 02:05:20 02:08:40 19° 267° (W) 02:12:00 437.325
AIST 1 21 Dec 02:37:51 02:40:27 16° 72° (ENE) 02:43:02
MOZHAYETS 4 21 Dec 03:03:49 03:06:03 14° 63° (ENE) 03:08:17
VERMONT LUNAR 21 Dec 03:09:38 03:13:03 49° 158° (SSE) 03:16:29 437.305
HORYU 2 21 Dec 03:13:11 03:17:33 46° 100° (E) 03:21:53 437.375
Oscar 19 21 Dec 03:23:31 03:26:08 14° 299° (WNW) 03:28:45 437.125/150
STARS 21 Dec 03:23:35 03:26:27 17° 267° (W) 03:29:20 437.465
PHONESAT 2.4 21 Dec 03:25:10 03:28:37 43° 157° (SSE) 03:32:05 2401.200-2431.200
Gurwin Techsat 1B 21 Dec 03:35:21 03:40:22 44° 290° (WNW) 03:45:21 435.225
ITAMSAT 1 21 Dec 03:38:44 03:42:56 26° 294° (WNW) 03:47:07 435.822/435.867
AO-7 21 Dec 03:51:09 03:59:00 43° 100° (E) 04:06:46 29.400- 29.500
GONETS M04 21 Dec 03:56:22 04:01:13 16° 77° (ENE) 04:06:02
AIST 1 21 Dec 04:14:18 04:18:17 38° 268° (W) 04:22:13
JAS-2 21 Dec 04:32:24 04:37:05 28° 94° (E) 04:41:29 435.910
MOZHAYETS 4 21 Dec 04:38:07 04:42:42 63° 259° (W) 04:47:21
VERMONT LUNAR 21 Dec 04:47:48 04:51:20 73° 355° (N) 04:54:52 437.305
STRAND 1 21 Dec 04:48:25 04:50:36 13° 60° (ENE) 04:52:47 437.568
HORYU 2 21 Dec 04:50:58 04:53:49 17° 295° (WNW) 04:56:39 437.375
PHONESAT 2.4 21 Dec 05:03:37 05:07:14 76° 353° (N) 05:10:52 2401.200-2431.200
PRISM 21 Dec 05:13:11 05:17:14 46° 73° (ENE) 05:21:17 437.425
SO-50 21 Dec 05:25:37 05:30:18 44° 53° (NE) 05:35:00 436.795
CUTE-I 21 Dec 05:31:01 05:34:50 20° 93° (E) 05:38:37 437.470
AO-7 21 Dec 05:43:59 05:51:42 43° 298° (WNW) 05:59:23 29.400- 29.500
GONETS M04 21 Dec 05:47:48 05:56:39 88° 96° (E) 06:05:32
CUBESAT XI-V 21 Dec 06:02:23 06:07:03 73° 76° (ENE) 06:11:42 437.345
JAS-2 21 Dec 06:17:16 06:22:15 33° 293° (WNW) 06:26:53 435.910
STRAND 1 21 Dec 06:23:59 06:29:06 79° 257° (WSW) 06:34:14 437.568
VERMONT LUNAR 21 Dec 06:26:13 06:29:46 87° 11° (NNE) 06:33:18 437.305
Cubesat XI-IV 21 Dec 06:36:42 06:42:03 84° 104° (ESE) 06:47:22 437.490
PHONESAT 2.4 21 Dec 06:42:25 06:46:03 83° 10° (N) 06:49:41 2401.200-2431.200
PRISM 21 Dec 06:50:47 06:52:59 14° 268° (W) 06:55:11 437.425
SO-50 21 Dec 07:06:48 07:10:34 22° 249° (WSW) 07:14:20 436.795
CUTE-I 21 Dec 07:10:02 07:15:08 49° 289° (WNW) 07:20:13 437.470
CUBESAT XI-V 21 Dec 07:44:29 07:44:57 10° 271° (W) 07:45:25 437.345
GONETS M04 21 Dec 07:48:49 07:54:39 19° 296° (WNW) 08:00:33
CANX-2 21 Dec 07:51:17 07:52:02 10° 90° (E) 07:52:47 2200.000
VERMONT LUNAR 21 Dec 08:04:46 08:07:53 30° 207° (SSW) 08:11:01 437.305
COMPASS 1 21 Dec 08:10:47 08:12:11 11° 90° (E) 08:13:35 437.405
SEEDS 21 Dec 08:16:00 08:18:43 16° 92° (E) 08:21:26 437.485
Cubesat XI-IV 21 Dec 08:19:12 08:21:23 13° 300° (WNW) 08:23:34 437.490
CUTE 1.7 + AOD 2 21 Dec 08:19:45 08:23:04 21° 94° (E) 08:26:21 437.475
PHONESAT 2.4 21 Dec 08:21:16 08:24:36 35° 206° (SSW) 08:27:55 2401.200-2431.200
BRITE-PL 21 Dec 08:35:47 08:40:17 40° 99° (E) 08:45:06 437.365/2234.400
HO-68 21 Dec 08:36:15 08:42:59 43° 99° (E) 08:49:39 435.675
DANDE 21 Dec 08:46:20 08:48:22 14° 81° (E) 08:50:42 436.750
MaSat-1 21 Dec 08:51:35 08:53:49 44° 296° (WNW) 08:55:59 437.345
Oscar 11 21 Dec 08:58:26 09:01:27 18° 93° (E) 09:04:26 145.826/435.025
GOMX 1 21 Dec 08:59:13 09:03:54 50° 100° (E) 09:08:53 467.674
UNISAT 6 21 Dec 09:04:53 09:08:00 19° 66° (ENE) 09:11:11 437.425
UKube-1 21 Dec 09:07:42 09:10:21 16° 93° (E) 09:13:00 .
AAUSAT CUBESAT 2 21 Dec 09:08:15 09:12:22 47° 99° (E) 09:16:26 437.432
QB50P2 21 Dec 09:12:01 09:14:17 14° 65° (ENE) 09:16:34 145.880/145.840
POLYITAN 1 21 Dec 09:20:27 09:23:17 18° 66° (ENE) 09:26:07 437.675
DOVE 4 21 Dec 09:21:39 09:26:27 64° 101° (E) 09:31:29 437.250
NANOSAT C BR1 21 Dec 09:22:02 09:24:54 18° 67° (ENE) 09:27:47 145.865
CUBEBUG 2 21 Dec 09:22:06 09:25:49 23° 95° (E) 09:29:35 437.445
CANX-2 21 Dec 09:24:04 09:28:22 63° 285° (WNW) 09:32:36 2200.000
ZACube-1 21 Dec 09:30:12 09:33:32 20° 94° (E) 09:36:53 437.345
CUSAT 1 21 Dec 09:32:16 09:35:48 72° 96° (E) 09:40:36 437.405
ANTELSAT 21 Dec 09:35:42 09:39:47 41° 72° (ENE) 09:44:00 437.575/2403.000
QB50P1 21 Dec 09:35:51 09:39:20 26° 69° (ENE) 09:42:49 145.935-145.965
VELOX 1 21 Dec 09:36:20 09:37:20 11° 91° (E) 09:38:20 145.980
CINEMA 3 21 Dec 09:42:21 09:47:06 63° 101° (E) 09:51:59 145.822/145.860
COMPASS 1 21 Dec 09:44:04 09:48:15 56° 286° (WNW) 09:52:23 437.405
SEEDS 21 Dec 09:50:41 09:54:42 39° 288° (WNW) 09:58:41 437.485
CUTE 1.7 + AOD 2 21 Dec 09:55:12 09:59:00 31° 290° (WNW) 10:02:47 437.475
FUNcube-1 21 Dec 09:56:02 10:00:16 37° 98° (E) 10:04:31 145.935
DELFI C3 21 Dec 09:56:29 10:00:37 70° 102° (ESE) 10:04:42 145.870
O/OREOS (USA 219) 21 Dec 09:57:59 10:02:09 36° 63° (ENE) 10:06:19 437.305
UWE-3 21 Dec 09:58:20 10:02:48 48° 99° (E) 10:07:18 435.000/436.395/437.385
50 SAT 21 Dec 09:58:40 10:01:24 17° 93° (E) 10:04:07 437.505
POPSAT HIP 1 21 Dec 10:03:55 10:08:00 53° 74° (ENE) 10:12:07 437.405
YUBILEINY 21 Dec 10:04:56 10:12:42 35° 72° (ENE) 10:20:25 435.215
RS-15 21 Dec 10:06:41 10:14:42 24° 102° (ESE) 10:22:38 29.354- 29.394
TIGRISAT 21 Dec 10:10:30 10:14:50 83° 258° (WSW) 10:19:19 435.000
DX 1 21 Dec 10:12:03 10:16:25 90° 102° (ESE) 10:20:46 434.975-435.025
BRITE-PL 21 Dec 10:14:59 10:18:34 22° 292° (WNW) 10:22:22 437.365/2234.400
AISAT 21 Dec 10:17:19 10:21:20 33° 98° (E) 10:25:21 437.250
CUBEBUG 1 21 Dec 10:22:21 10:24:24 13° 92° (E) 10:26:27 437.445
HO-68 21 Dec 10:24:10 10:30:32 36° 296° (WNW) 10:36:52 435.675
HUMSAT D 21 Dec 10:25:01 10:29:11 44° 99° (E) 10:33:21 437.325/437.525
BUGSAT 1 21 Dec 10:27:11 10:31:16 81° 76° (ENE) 10:35:21 437.445
DANDE 21 Dec 10:28:05 10:31:15 30° 290° (WNW) 10:35:18 436.750
DUCHIFAT 1 21 Dec 10:31:28 10:35:39 72° 258° (WSW) 10:39:51 145.980
Oscar 11 21 Dec 10:33:42 10:37:44 37° 289° (WNW) 10:41:44 145.826/435.025
GOMX 1 21 Dec 10:38:29 10:41:41 18° 293° (WNW) 10:45:01 467.674
UNISAT 6 21 Dec 10:40:28 10:44:30 37° 262° (W) 10:48:39 437.425
UKube-1 21 Dec 10:42:36 10:46:41 42° 288° (WNW) 10:50:45 .
AAUSAT CUBESAT 2 21 Dec 10:45:19 10:47:37 14° 295° (WNW) 10:49:54 437.432
QB50P2 21 Dec 10:45:43 10:49:47 47° 260° (W) 10:53:53 145.880/145.840
POLYITAN 1 21 Dec 10:55:02 10:58:56 37° 262° (W) 11:02:51 437.675
NANOSAT C BR1 21 Dec 10:56:38 11:00:30 36° 262° (W) 11:04:24 145.865
CUBEBUG 2 21 Dec 10:58:21 11:02:32 34° 289° (WNW) 11:06:47 437.445
DOVE 4 21 Dec 11:01:09 11:03:44 15° 295° (WNW) 11:06:24 437.250
ZACube-1 21 Dec 11:05:48 11:09:59 37° 288° (WNW) 11:14:13 437.345
VELOX 1 21 Dec 11:09:56 11:14:19 64° 286° (WNW) 11:18:41 145.980
QB50P1 21 Dec 11:11:42 11:15:09 24° 264° (W) 11:18:37 145.935-145.965
ANTELSAT 21 Dec 11:13:57 11:16:47 17° 268° (W) 11:19:39 437.575/2403.000
ESTCUBE 1 21 Dec 11:15:02 11:19:28 57° 101° (E) 11:23:52 437.505/2401.250
CINEMA 3 21 Dec 11:21:15 11:23:48 15° 295° (WNW) 11:26:24 145.822/145.860
TISAT 1 21 Dec 11:21:29 11:23:47 14° 92° (E) 11:26:05 437.305
Oscar 19 21 Dec 11:22:54 11:24:35 12° 60° (ENE) 11:26:17 437.125/150
SPROUT 21 Dec 11:26:55 11:29:34 16° 93° (E) 11:32:12 437.525
50 SAT 21 Dec 11:32:54 11:36:43 36° 288° (WNW) 11:40:32 437.505
FUNcube-1 21 Dec 11:32:59 11:36:21 21° 293° (WNW) 11:39:44 145.935
UWE-3 21 Dec 11:35:59 11:38:57 17° 294° (WNW) 11:41:56 435.000/436.395/437.385
O/OREOS (USA 219) 21 Dec 11:37:58 11:41:17 20° 259° (W) 11:44:36 437.305
POPSAT HIP 1 21 Dec 11:42:44 11:44:13 12° 269° (W) 11:45:42 437.405
AISAT 21 Dec 11:54:23 11:57:45 22° 293° (WNW) 12:01:08 437.250
CUBEBUG 1 21 Dec 11:56:51 12:01:03 50° 287° (WNW) 12:05:14 437.445
YUBILEINY 21 Dec 12:01:27 12:09:41 49° 271° (W) 12:17:54 435.215
HUMSAT D 21 Dec 12:01:57 12:04:37 16° 294° (WNW) 12:07:17 437.325/437.525
RS-15 21 Dec 12:14:42 12:25:40 82° 302° (WNW) 12:36:42 29.354- 29.394
BEESAT 3 21 Dec 12:20:55 12:24:16 25° 112° (ESE) 12:27:39 437.485
SWISSCUBE 21 Dec 12:28:51 12:31:05 13° 91° (E) 12:33:18 437.505
ITUPSAT 1 21 Dec 12:30:01 12:31:50 12° 91° (E) 12:33:39 437.325
AIST 2 21 Dec 12:33:38 12:35:50 14° 108° (ESE) 12:38:03 435.215
BEESAT 21 Dec 12:52:28 12:56:10 22° 94° (E) 12:59:50 436.000
ESTCUBE 1 21 Dec 12:53:35 12:55:50 14° 296° (WNW) 12:58:05 437.505/2401.250
TISAT 1 21 Dec 12:55:48 12:59:49 44° 287° (WNW) 13:03:50 437.305
Oscar 19 21 Dec 12:58:00 13:03:09 87° 256° (WSW) 13:08:21 437.125/150
PCSat 21 Dec 12:59:46 13:04:41 37° 110° (ESE) 13:09:38 145.827
BEESAT 2 21 Dec 13:00:41 13:04:44 62° 118° (ESE) 13:08:52 435.950
SPROUT 21 Dec 13:01:46 13:05:49 41° 288° (WNW) 13:09:51 437.525
ISS 21 Dec 13:02:16 13:05:29 52° 138° (SE) 13:08:43 145.825
AO-7 21 Dec 13:03:44 13:05:51 11° 44° (NE) 13:07:59 29.400- 29.500
JUGNU 21 Dec 13:07:37 13:09:09 11° 179° (S) 13:10:40 437.505
ITAMSAT 1 21 Dec 13:15:45 13:20:45 51° 72° (ENE) 13:25:46 435.822/435.867
Gurwin Techsat 1B 21 Dec 13:16:06 13:20:45 32° 68° (ENE) 13:25:24 435.225
AUBIESAT-1 21 Dec 13:20:56 13:22:01 11° 93° (E) 13:23:04 437.475
KKS-1 21 Dec 13:43:37 13:46:05 15° 92° (E) 13:48:32 437.445
M-CUBED/EXP-1 PRIME 21 Dec 13:45:11 13:48:41 25° 99° (E) 13:51:57 437.505
BEESAT 3 21 Dec 13:58:42 14:02:19 29° 309° (NW) 14:05:59 437.485
SWISSCUBE 21 Dec 14:04:37 14:09:19 60° 287° (WNW) 14:13:59 437.505
ITUPSAT 1 21 Dec 14:05:25 14:10:09 65° 286° (WNW) 14:14:51 437.325
AIST 2 21 Dec 14:09:50 14:13:58 53° 304° (NW) 14:18:11 435.215
HORYU 2 21 Dec 14:10:47 14:14:54 38° 71° (ENE) 14:19:04 437.375
SRMSAT 21 Dec 14:13:05 14:14:16 11° 176° (S) 14:15:26 437.500
BEESAT 21 Dec 14:29:44 14:34:05 36° 290° (WNW) 14:38:24 436.000
RS-15 21 Dec 14:31:06 14:39:58 27° 329° (NNW) 14:48:59 29.354- 29.394
ISS 21 Dec 14:39:36 14:42:15 22° 335° (NNW) 14:44:54 145.825
BEESAT 2 21 Dec 14:40:59 14:43:24 15° 316° (NW) 14:45:50 435.950
PCSat 21 Dec 14:43:21 14:48:07 31° 308° (NW) 14:52:55 145.827
JAS-2 21 Dec 14:44:11 14:48:25 17° 60° (ENE) 14:52:28 435.910
AO-7 21 Dec 14:48:45 14:56:43 53° 65° (ENE) 15:04:44 29.400- 29.500
AUBIESAT-1 21 Dec 14:53:14 14:57:27 56° 291° (WNW) 15:01:17 437.475
Gurwin Techsat 1B 21 Dec 14:56:01 15:00:39 31° 264° (W) 15:05:19 435.225
ITAMSAT 1 21 Dec 14:57:03 15:00:30 18° 267° (W) 15:03:59 435.822/435.867
